SAS4608 EGCC-ENGM

Flight info

Callsign SAS4608
Flight time N/A
Altitude 35000
Route DESIG L603 LAMIX UT29 LIBSO UL975 ERDOW DCT ROPAL DCT LESRA DCT PIPEX DCT RIPAM
Aircraft A320/M-SDE3FGHIJ1RWXYZ/ALB1

Departure

Time N/A
Airport Manchester Airport (EGCC)

Arrival

Time 2026-04-30 08:53
Airport Oslo-Gardermoen International Airport (ENGM)
Time Latitude Longitude Altitude Speed Heading
2026-04-30 07:43 55.00407 3.58345 35496 ft 430 kts 57°
2026-04-30 07:43 55.03655 3.67093 35498 ft 430 kts 57°
2026-04-30 07:44 55.06903 3.75842 35494 ft 430 kts 57°
2026-04-30 07:44 55.10149 3.84609 35493 ft 430 kts 57°
2026-04-30 07:45 55.13372 3.93420 35488 ft 430 kts 60°
2026-04-30 07:45 55.15822 4.02961 35491 ft 431 kts 66°
2026-04-30 07:46 55.18135 4.12639 35497 ft 431 kts 66°
2026-04-30 07:46 55.20440 4.22305 35492 ft 431 kts 66°
2026-04-30 07:47 55.22732 4.31993 35496 ft 431 kts 66°
2026-04-30 07:47 55.25021 4.41690 35493 ft 431 kts 66°
2026-04-30 07:48 55.27306 4.51405 35494 ft 431 kts 66°
2026-04-30 07:48 55.29586 4.61140 35502 ft 431 kts 66°
2026-04-30 07:49 55.31852 4.70877 35501 ft 431 kts 67°
2026-04-30 07:49 55.34114 4.80629 35504 ft 431 kts 67°
2026-04-30 07:50 55.36360 4.90387 35515 ft 431 kts 66°
2026-04-30 07:50 55.39490 4.99275 35515 ft 428 kts 47°
2026-04-30 07:51 55.44060 5.05764 35515 ft 425 kts 30°
2026-04-30 07:51 55.49155 5.11070 35506 ft 426 kts 30°
2026-04-30 07:52 55.54235 5.16432 35499 ft 426 kts 30°
2026-04-30 07:52 55.59318 5.21814 35510 ft 426 kts 30°
2026-04-30 07:53 55.64405 5.27201 35503 ft 426 kts 30°
2026-04-30 07:53 55.69483 5.32603 35510 ft 426 kts 30°
2026-04-30 07:54 55.74576 5.38035 35505 ft 427 kts 31°
2026-04-30 07:54 55.79667 5.43478 35513 ft 427 kts 31°
2026-04-30 07:55 55.84760 5.48932 35500 ft 427 kts 31°
2026-04-30 07:55 55.89849 5.54412 35507 ft 427 kts 31°
2026-04-30 07:56 55.94929 5.59901 35500 ft 428 kts 31°
2026-04-30 07:56 56.00019 5.65418 35509 ft 428 kts 31°
2026-04-30 07:57 56.05106 5.70946 35500 ft 428 kts 31°
2026-04-30 07:57 56.10200 5.76488 35504 ft 428 kts 31°
2026-04-30 07:58 56.15285 5.82045 35502 ft 428 kts 31°
2026-04-30 07:58 56.20369 5.87615 35491 ft 428 kts 31°
2026-04-30 07:59 56.25442 5.93215 35492 ft 428 kts 31°
2026-04-30 07:59 56.30517 5.98803 35500 ft 428 kts 31°
2026-04-30 08:00 56.38136 6.07218 35497 ft 428 kts 31°
2026-04-30 08:00 56.43207 6.12867 35515 ft 428 kts 31°
2026-04-30 08:01 56.48274 6.18520 35505 ft 428 kts 31°
2026-04-30 08:01 56.53338 6.24196 35516 ft 428 kts 31°
2026-04-30 08:02 56.60926 6.32733 35514 ft 428 kts 31°
2026-04-30 08:03 56.71085 6.44183 35475 ft 432 kts 31°
2026-04-30 08:04 56.76197 6.49982 35474 ft 433 kts 31°
2026-04-30 08:04 56.81316 6.55819 35476 ft 434 kts 31°
2026-04-30 08:05 56.86401 6.61647 35480 ft 435 kts 31°
2026-04-30 08:05 56.91532 6.67535 35484 ft 435 kts 31°
2026-04-30 08:06 56.96665 6.73415 35490 ft 435 kts 31°
2026-04-30 08:06 57.01792 6.79319 35490 ft 435 kts 31°
2026-04-30 08:07 57.06914 6.85261 35488 ft 436 kts 31°
2026-04-30 08:07 57.12034 6.91216 35485 ft 435 kts 31°
2026-04-30 08:08 57.17146 6.97165 35490 ft 435 kts 31°
2026-04-30 08:08 57.22256 7.03142 35482 ft 435 kts 31°
2026-04-30 08:09 57.27362 7.09135 35485 ft 435 kts 31°
2026-04-30 08:09 57.32476 7.15144 35484 ft 435 kts 31°
2026-04-30 08:10 57.37580 7.21175 35480 ft 435 kts 31°
2026-04-30 08:10 57.42678 7.27225 35479 ft 435 kts 31°
2026-04-30 08:11 57.47774 7.33286 35477 ft 435 kts 31°
2026-04-30 08:11 57.52868 7.39359 35470 ft 435 kts 31°
2026-04-30 08:12 57.57960 7.45455 35466 ft 435 kts 31°
2026-04-30 08:12 57.63049 7.51580 35463 ft 435 kts 31°
2026-04-30 08:13 57.68137 7.57716 35458 ft 436 kts 31°
2026-04-30 08:13 57.73190 7.63824 35451 ft 436 kts 31°
2026-04-30 08:14 57.78314 7.70033 35450 ft 435 kts 31°
2026-04-30 08:14 57.83362 7.76167 35446 ft 435 kts 31°
2026-04-30 08:15 57.88436 7.82365 35443 ft 436 kts 31°
2026-04-30 08:15 57.93509 7.88608 35439 ft 436 kts 31°
2026-04-30 08:16 57.98585 7.94853 35437 ft 436 kts 31°
2026-04-30 08:16 58.03668 8.01119 35438 ft 436 kts 31°
2026-04-30 08:17 58.08744 8.07394 35439 ft 436 kts 31°
2026-04-30 08:17 58.13816 8.13709 35442 ft 437 kts 32°
2026-04-30 08:18 58.18891 8.20044 35440 ft 437 kts 32°
2026-04-30 08:18 58.23965 8.26393 35442 ft 437 kts 32°
2026-04-30 08:19 58.29037 8.32760 35445 ft 437 kts 32°
2026-04-30 08:19 58.34099 8.39147 35450 ft 437 kts 32°
2026-04-30 08:20 58.39153 8.45544 35452 ft 436 kts 32°
2026-04-30 08:20 58.44214 8.51959 35452 ft 436 kts 32°
2026-04-30 08:21 58.49259 8.58385 35453 ft 436 kts 32°
2026-04-30 08:21 58.54300 8.64816 35453 ft 435 kts 32°
2026-04-30 08:22 58.59331 8.71271 35454 ft 435 kts 32°
2026-04-30 08:22 58.64348 8.77759 35455 ft 435 kts 32°
2026-04-30 08:23 58.69364 8.84243 35458 ft 434 kts 32°
2026-04-30 08:23 58.74380 8.90723 35457 ft 434 kts 32°
2026-04-30 08:24 58.79385 8.97224 35452 ft 433 kts 32°
2026-04-30 08:24 58.84370 9.03748 35457 ft 433 kts 32°
2026-04-30 08:25 58.89267 9.10537 35455 ft 433 kts 34°
2026-04-30 08:25 58.94023 9.17589 35422 ft 434 kts 36°
2026-04-30 08:25 58.96414 9.21154 35166 ft 433 kts 35°
2026-04-30 08:26 58.98807 9.24694 34916 ft 433 kts 35°
2026-04-30 08:26 59.01206 9.28219 34667 ft 433 kts 34°
2026-04-30 08:26 59.03608 9.31743 34417 ft 433 kts 34°
2026-04-30 08:26 59.06016 9.35275 34168 ft 434 kts 34°
2026-04-30 08:27 59.07644 9.37664 33998 ft 434 kts 34°
2026-04-30 08:27 59.10027 9.41161 33751 ft 435 kts 34°
2026-04-30 08:27 59.12474 9.44760 33498 ft 435 kts 34°
2026-04-30 08:27 59.14894 9.48330 32716 ft 438 kts 34°
2026-04-30 08:28 59.17302 9.51892 31819 ft 442 kts 34°
2026-04-30 08:28 59.19759 9.55534 30949 ft 444 kts 35°
2026-04-30 08:28 59.22243 9.59235 30310 ft 440 kts 35°
2026-04-30 08:28 59.24657 9.62847 29757 ft 435 kts 35°
2026-04-30 08:29 59.26993 9.66351 29562 ft 421 kts 35°
2026-04-30 08:29 59.29279 9.69781 29444 ft 408 kts 35°
2026-04-30 08:29 59.31522 9.73028 29314 ft 394 kts 30°
2026-04-30 08:29 59.33901 9.75449 29191 ft 379 kts 19°
2026-04-30 08:30 59.36376 9.76990 28977 ft 370 kts 13°
2026-04-30 08:30 59.38847 9.78348 28634 ft 367 kts 13°
2026-04-30 08:30 59.41301 9.79704 28281 ft 365 kts 14°
2026-04-30 08:30 59.43735 9.81055 27919 ft 363 kts 13°
2026-04-30 08:31 59.46157 9.82406 27571 ft 361 kts 13°
2026-04-30 08:31 59.48554 9.83750 27081 ft 356 kts 13°
2026-04-30 08:31 59.50941 9.85089 26656 ft 355 kts 13°
2026-04-30 08:31 59.53306 9.86419 26302 ft 352 kts 13°
2026-04-30 08:32 59.55656 9.87741 25917 ft 350 kts 13°
2026-04-30 08:32 59.57995 9.89054 25530 ft 348 kts 13°
2026-04-30 08:32 59.60315 9.90358 25152 ft 346 kts 13°
2026-04-30 08:32 59.62625 9.91656 24756 ft 344 kts 13°
2026-04-30 08:33 59.64918 9.92943 24362 ft 342 kts 13°
2026-04-30 08:33 59.67196 9.94227 23953 ft 338 kts 13°
2026-04-30 08:33 59.69441 9.95489 23251 ft 333 kts 13°
2026-04-30 08:33 59.71660 9.96727 22544 ft 330 kts 13°
2026-04-30 08:34 59.73852 9.97946 21854 ft 326 kts 13°
2026-04-30 08:34 59.76022 9.99152 21158 ft 322 kts 13°
2026-04-30 08:34 59.78161 10.00347 20473 ft 318 kts 13°
2026-04-30 08:34 59.80277 10.01537 19783 ft 314 kts 13°
2026-04-30 08:35 59.82364 10.02715 19117 ft 310 kts 13°
2026-04-30 08:35 59.84413 10.03871 18626 ft 302 kts 13°
2026-04-30 08:35 59.86453 10.05019 18213 ft 304 kts 13°
2026-04-30 08:35 59.88489 10.06166 17799 ft 304 kts 13°
2026-04-30 08:36 59.90518 10.07311 17430 ft 302 kts 13°
2026-04-30 08:36 59.92536 10.08451 17001 ft 302 kts 13°
2026-04-30 08:36 59.94549 10.09590 16583 ft 301 kts 13°
2026-04-30 08:36 59.96554 10.10735 16235 ft 299 kts 13°
2026-04-30 08:37 59.98545 10.11877 15857 ft 297 kts 13°
2026-04-30 08:37 60.00544 10.13025 15467 ft 297 kts 13°
2026-04-30 08:37 60.02532 10.14170 15026 ft 299 kts 13°
2026-04-30 08:37 60.04511 10.15312 14747 ft 294 kts 13°
2026-04-30 08:38 60.06474 10.16449 14360 ft 294 kts 13°
2026-04-30 08:38 60.08433 10.17584 13994 ft 293 kts 13°
2026-04-30 08:38 60.10360 10.18700 13640 ft 291 kts 13°
2026-04-30 08:38 60.12305 10.19823 13274 ft 290 kts 13°
2026-04-30 08:39 60.14243 10.20944 12908 ft 290 kts 13°
2026-04-30 08:39 60.16180 10.22068 12527 ft 289 kts 13°
2026-04-30 08:39 60.18109 10.23187 12168 ft 288 kts 13°
2026-04-30 08:39 60.20033 10.24302 11811 ft 287 kts 13°
2026-04-30 08:40 60.21948 10.25417 11437 ft 287 kts 13°
2026-04-30 08:40 60.23865 10.26538 11058 ft 287 kts 13°
2026-04-30 08:40 60.25786 10.27663 10605 ft 289 kts 14°
2026-04-30 08:40 60.27701 10.28786 10406 ft 285 kts 14°
2026-04-30 08:41 60.29622 10.29914 9976 ft 290 kts 14°
2026-04-30 08:41 60.31551 10.31080 9706 ft 288 kts 18°
2026-04-30 08:41 60.33254 10.33130 9588 ft 289 kts 41°
2026-04-30 08:41 60.34454 10.36413 9473 ft 295 kts 64°
2026-04-30 08:42 60.35164 10.40314 9347 ft 297 kts 69°
2026-04-30 08:42 60.35839 10.44253 9220 ft 296 kts 70°
2026-04-30 08:42 60.36506 10.48190 9097 ft 296 kts 70°
2026-04-30 08:42 60.37173 10.52130 8977 ft 296 kts 70°
2026-04-30 08:43 60.37838 10.56060 8848 ft 295 kts 70°
2026-04-30 08:43 60.38504 10.59990 8724 ft 296 kts 70°
2026-04-30 08:43 60.39170 10.63915 8597 ft 295 kts 69°
2026-04-30 08:43 60.39834 10.67836 8462 ft 294 kts 70°
2026-04-30 08:44 60.40491 10.71744 8093 ft 294 kts 70°
2026-04-30 08:44 60.41153 10.75676 7693 ft 296 kts 70°
2026-04-30 08:44 60.41812 10.79594 7323 ft 296 kts 70°
2026-04-30 08:44 60.42466 10.83504 7106 ft 290 kts 70°
2026-04-30 08:45 60.43112 10.87364 6747 ft 289 kts 69°
2026-04-30 08:45 60.43758 10.91222 6416 ft 288 kts 69°
2026-04-30 08:45 60.44397 10.95063 6096 ft 287 kts 70°
2026-04-30 08:45 60.45031 10.98875 5873 ft 283 kts 69°
2026-04-30 08:46 60.45642 11.02567 5732 ft 267 kts 70°
2026-04-30 08:46 60.46015 11.06115 5471 ft 254 kts 88°
2026-04-30 08:46 60.45739 11.09611 5127 ft 253 kts 110°
2026-04-30 08:46 60.44851 11.12637 4846 ft 250 kts 131°
2026-04-30 08:47 60.43720 11.15282 4585 ft 247 kts 131°
2026-04-30 08:47 60.42617 11.17882 4467 ft 240 kts 131°
2026-04-30 08:47 60.41552 11.20407 4334 ft 232 kts 131°
2026-04-30 08:47 60.40329 11.22389 4199 ft 222 kts 158°
2026-04-30 08:48 60.38870 11.22977 4073 ft 209 kts 186°
2026-04-30 08:48 60.37497 11.22356 3992 ft 196 kts 198°
2026-04-30 08:48 60.36235 11.21620 3889 ft 185 kts 198°
2026-04-30 08:48 60.35021 11.20912 3682 ft 183 kts 198°
2026-04-30 08:49 60.33806 11.20203 3465 ft 182 kts 198°
2026-04-30 08:49 60.32590 11.19493 3222 ft 181 kts 197°
2026-04-30 08:49 60.31374 11.18785 2983 ft 182 kts 197°
2026-04-30 08:49 60.30159 11.18077 2738 ft 179 kts 197°
2026-04-30 08:50 60.29009 11.17408 2513 ft 163 kts 197°
2026-04-30 08:50 60.27979 11.16810 2305 ft 148 kts 197°
2026-04-30 08:50 60.26999 11.16240 2113 ft 142 kts 196°
2026-04-30 08:50 60.26072 11.15701 1923 ft 139 kts 195°
2026-04-30 08:51 60.25132 11.15155 1732 ft 139 kts 195°
2026-04-30 08:51 60.24207 11.14619 1553 ft 138 kts 195°
2026-04-30 08:51 60.23295 11.14090 1367 ft 138 kts 195°
2026-04-30 08:51 60.22374 11.13543 1165 ft 138 kts 196°
2026-04-30 08:52 60.21440 11.13006 999 ft 138 kts 195°
2026-04-30 08:52 60.20519 11.12469 785 ft 138 kts 195°
2026-04-30 08:52 60.19628 11.11963 688 ft 122 kts 195°
2026-04-30 08:52 60.18958 11.11577 684 ft 76 kts 196°
2026-04-30 08:53 60.18663 11.11406 684 ft 19 kts 196°
2026-04-30 08:53 60.18540 11.11302 680 ft 20 kts 210°
2026-04-30 08:53 60.18434 11.11133 683 ft 16 kts 248°
2026-04-30 08:53 60.18451 11.10952 681 ft 15 kts 297°
2026-04-30 08:54 60.18542 11.10943 682 ft 15 kts 16°
2026-04-30 08:54 60.18651 11.11005 683 ft 17 kts 16°
2026-04-30 08:54 60.18774 11.11077 683 ft 20 kts 16°
2026-04-30 08:54 60.18913 11.11158 683 ft 22 kts 16°
2026-04-30 08:55 60.19070 11.11250 683 ft 25 kts 16°
2026-04-30 08:55 60.19245 11.11350 682 ft 27 kts 16°
2026-04-30 08:55 60.19381 11.11406 680 ft 14 kts 338°
2026-04-30 08:55 60.19421 11.11225 683 ft 15 kts 285°
2026-04-30 08:56 60.19452 11.11002 680 ft 18 kts 286°
2026-04-30 08:56 60.19488 11.10755 683 ft 12 kts 286°
2026-04-30 08:56 60.19460 11.10686 684 ft 7 kts 191°
2026-04-30 08:56 60.19407 11.10657 685 ft 9 kts 196°
2026-04-30 08:57 60.19386 11.10643 685 ft 0 kts 198°